Location: McCloud Nature Park
(39.8272°N, 86.6824°W)
Time: 02:53:13
(UTC-05:00)

Amateur Radio Satellites - All Passes

Search period start: 03 July 2015 02:23
Search period end: 04 July 2015 02:23
Location: McCloud Nature Park, 39.8272°N, 86.6824°W

Satellite Date Start Highest point End Downlink Frequencies (MHz)
Time Altitude Azimuth
Cosmos 2491 03 Jul 02:30:22 02:39:01 62° 78° (ENE) 02:47:38 435.465 / 435.565
BEESAT 03 Jul 02:41:17 02:45:15 25° 266° (W) 02:49:08 436.000
KKS-1 03 Jul 02:45:48 02:50:13 66° 74° (ENE) 02:54:40 437.445
PCSat 03 Jul 02:53:37 02:57:36 20° 253° (WSW) 03:01:24 145.827
RS-15 03 Jul 02:55:25 03:06:18 83° 119° (ESE) 03:17:33 29.354- 29.394
SWISSCUBE 03 Jul 02:57:44 03:00:48 16° 269° (W) 03:03:40 437.505
SO-50 03 Jul 03:01:55 03:06:33 39° 245° (WSW) 03:11:02 436.795
ITUPSAT 1 03 Jul 03:02:10 03:05:14 16° 269° (W) 03:08:08 437.325
YUBILEINY 03 Jul 03:04:07 03:12:07 45° 89° (E) 03:20:16 435.215
AIST 1 03 Jul 03:23:55 03:28:16 69° 265° (W) 03:32:33
Gurwin Techsat 1B 03 Jul 03:27:46 03:33:07 82° 286° (WNW) 03:38:27 435.225
JAS-2 03 Jul 03:34:30 03:40:32 37° 96° (E) 03:47:18 435.910
Oscar 19 03 Jul 03:37:27 03:41:13 20° 295° (WNW) 03:44:50 437.125/150
HORYU 2 03 Jul 03:39:33 03:42:25 17° 92° (E) 03:45:27 437.375
STARS 03 Jul 03:42:23 03:46:40 48° 261° (W) 03:50:55 437.465
ITAMSAT 1 03 Jul 03:44:04 03:49:13 60° 287° (WNW) 03:54:20 435.822/435.867
AO-7 03 Jul 03:56:24 04:03:34 32° 95° (E) 04:10:54 29.400- 29.500
KKS-1 03 Jul 04:26:08 04:27:23 11° 272° (W) 04:28:21 437.445
MOZHAYETS 4 03 Jul 04:27:14 04:31:48 77° 75° (ENE) 04:36:24
Cosmos 2491 03 Jul 04:28:16 04:35:21 27° 276° (W) 04:42:05 435.465 / 435.565
Cosmos 2504 03 Jul 04:39:54 04:43:35 16° 82° (E) 04:47:41 435.465 / 435.565
CUBESAT XI-V 03 Jul 04:52:18 04:54:06 12° 64° (ENE) 04:56:08 437.345
YUBILEINY 03 Jul 05:01:06 05:09:07 38° 288° (WNW) 05:17:01 435.215
RS-15 03 Jul 05:10:30 05:20:11 33° 326° (NW) 05:30:02 29.354- 29.394
Gurwin Techsat 1B 03 Jul 05:10:59 05:12:22 11° 300° (WNW) 05:13:25 435.225
HORYU 2 03 Jul 05:15:04 05:19:18 42° 288° (WNW) 05:23:29 437.375
JAS-2 03 Jul 05:19:34 05:25:37 40° 290° (WNW) 05:32:14 435.910
PRISM 03 Jul 05:47:48 05:49:45 13° 65° (ENE) 05:51:54 437.425
AO-7 03 Jul 05:48:38 05:56:46 56° 294° (WNW) 06:04:49 29.400- 29.500
CUTE-I 03 Jul 06:08:06 06:11:58 21° 92° (E) 06:15:59 437.470
CUBESAT XI-V 03 Jul 06:26:18 06:30:59 72° 259° (WSW) 06:35:44 437.345
Cosmos 2504 03 Jul 06:28:55 06:36:11 80° 278° (W) 06:43:24 435.465 / 435.565
Cubesat XI-IV 03 Jul 06:40:57 06:46:02 42° 98° (E) 06:51:06 437.490
STRAND 1 03 Jul 06:42:59 06:48:01 61° 73° (ENE) 06:53:08 437.568
BEESAT 3 03 Jul 06:43:59 06:46:30 16° 111° (ESE) 06:49:10 437.485
BEESAT 2 03 Jul 06:53:55 06:56:28 17° 111° (ESE) 06:59:11 435.950
DANDE 03 Jul 06:55:44 06:59:01 14° 90° (E) 07:02:25 436.750
O/OREOS (USA 219) 03 Jul 07:13:29 07:17:20 30° 105° (ESE) 07:21:15 437.305
PRISM 03 Jul 07:20:44 07:24:47 52° 260° (W) 07:28:55 437.425
RS-15 03 Jul 07:30:09 07:37:35 19° 360° (N) 07:45:13 29.354- 29.394
ISS 03 Jul 07:41:08 07:43:11 16° 132° (SE) 07:45:19 145.825
CUSAT 1 03 Jul 07:42:09 07:48:35 45° 97° (E) 07:53:38 437.405
GONETS M04 03 Jul 07:43:50 07:48:32 17° 79° (E) 07:53:46
AO-7 03 Jul 07:44:40 07:47:56 12° 313° (NW) 07:50:43 29.400- 29.500
CUTE-I 03 Jul 07:47:11 07:52:21 48° 289° (WNW) 07:57:28 437.470
HO-68 03 Jul 07:52:40 07:55:20 13° 86° (E) 07:58:34 435.675
AUBIESAT-1 03 Jul 08:00:07 08:03:09 35° 68° (ENE) 08:06:19 437.475
AIST 2 03 Jul 08:01:39 08:04:55 22° 113° (ESE) 08:08:19 435.215
BRITE-PL 03 Jul 08:03:49 08:07:28 27° 94° (E) 08:11:03 437.365/2234.400
CANX-2 03 Jul 08:11:05 08:12:10 11° 88° (E) 08:13:33 2200.000
VERMONT LUNAR 03 Jul 08:13:20 08:16:12 33° 156° (SSE) 08:19:05 437.305
BEESAT 3 03 Jul 08:20:15 08:24:09 43° 307° (NW) 08:28:05 437.485
Cubesat XI-IV 03 Jul 08:21:34 08:25:55 25° 294° (WNW) 08:30:07 437.490
STRAND 1 03 Jul 08:24:39 08:27:44 15° 270° (W) 08:30:35 437.568
Cosmos 2504 03 Jul 08:28:00 08:31:03 12° 301° (WNW) 08:33:36 435.465 / 435.565
BEESAT 2 03 Jul 08:30:18 08:34:14 43° 307° (NW) 08:38:12 435.950
M-CUBED/EXP-1 PRIME 03 Jul 08:32:46 08:36:01 62° 254° (WSW) 08:39:22 437.505
DANDE 03 Jul 08:34:25 08:42:03 89° 278° (W) 08:47:56 436.750
DOVE 4 03 Jul 08:38:25 08:41:41 22° 94° (E) 08:45:00 437.250
O/OREOS (USA 219) 03 Jul 08:53:03 08:56:47 25° 302° (WNW) 09:00:27 437.305
SEEDS 03 Jul 08:56:34 09:00:11 27° 95° (E) 09:03:51 437.485
AAUSAT CUBESAT 2 03 Jul 09:11:25 09:14:57 26° 95° (E) 09:18:34 437.432
ISS 03 Jul 09:16:10 09:19:20 51° 326° (NNW) 09:22:30 145.825
Oscar 11 03 Jul 09:17:52 09:20:06 14° 90° (E) 09:22:32 145.826/435.025
UNISAT 6 03 Jul 09:18:06 09:19:45 12° 65° (ENE) 09:21:37 437.425
GOMX 1 03 Jul 09:24:28 09:28:38 61° 285° (WNW) 09:32:42 467.674
CUSAT 1 03 Jul 09:25:52 09:31:12 25° 286° (WNW) 09:35:26 437.405
CINEMA 3 03 Jul 09:34:14 09:38:12 43° 98° (E) 09:42:16 145.822/145.860
GONETS M04 03 Jul 09:35:28 09:44:18 89° 94° (E) 09:53:06
COMPASS 1 03 Jul 09:35:47 09:40:00 61° 101° (E) 09:44:11 437.405
HO-68 03 Jul 09:37:05 09:44:17 82° 105° (ESE) 09:51:28 435.675
AUBIESAT-1 03 Jul 09:37:14 09:38:13 11° 265° (W) 09:39:01 437.475
DELFI C3 03 Jul 09:37:48 09:40:13 16° 91° (E) 09:42:46 145.870
AIST 2 03 Jul 09:39:24 09:43:20 35° 309° (NW) 09:47:16 435.215
CUTE 1.7 + AOD 2 03 Jul 09:41:09 09:45:26 73° 284° (WNW) 09:49:42 437.475
FUNcube-1 03 Jul 09:42:23 09:44:41 15° 91° (E) 09:47:12 145.935
BRITE-PL 03 Jul 09:42:27 09:45:58 23° 292° (WNW) 09:49:15 437.365/2234.400
CANX-2 03 Jul 09:44:20 09:48:34 60° 285° (WNW) 09:52:47 2200.000
RS-15 03 Jul 09:45:10 09:55:06 32° 34° (NNE) 10:05:38 29.354- 29.394
PHONESAT 2.4 03 Jul 09:46:54 09:50:05 36° 156° (SSE) 09:53:18 2401.200-2431.200
VERMONT LUNAR 03 Jul 09:49:51 09:53:00 85° 356° (N) 09:56:09 437.305
UWE-3 03 Jul 09:50:08 09:53:33 24° 95° (E) 09:57:04 435.000/436.395/437.385
ANTELSAT 03 Jul 10:00:07 10:04:00 35° 72° (ENE) 10:07:54 437.575/2403.000
TIGRISAT 03 Jul 10:12:52 10:16:59 47° 73° (ENE) 10:21:05 435.000
DOVE 4 03 Jul 10:15:57 10:19:29 26° 290° (WNW) 10:22:56 437.250
QB50P1 03 Jul 10:19:53 10:23:16 24° 69° (ENE) 10:26:43 145.935-145.965
DANDE 03 Jul 10:21:57 10:25:37 14° 292° (WNW) 10:28:33 436.750
DX 1 03 Jul 10:27:24 10:30:07 17° 92° (E) 10:32:59 434.975-435.025
CUBEBUG 2 03 Jul 10:31:56 10:36:08 86° 287° (WNW) 10:40:26 437.445
SEEDS 03 Jul 10:32:24 10:35:53 24° 290° (WNW) 10:39:18 437.485
NANOSAT C BR1 03 Jul 10:34:11 10:37:59 34° 71° (ENE) 10:41:50 145.865
ZACube-1 03 Jul 10:40:18 10:44:30 71° 101° (ESE) 10:48:47 437.345
DUCHIFAT 1 03 Jul 10:41:27 10:45:24 39° 72° (ENE) 10:49:23 145.980
POLYITAN 1 03 Jul 10:44:38 10:48:41 46° 73° (ENE) 10:52:46 437.675
Cosmos 2499 03 Jul 10:45:21 10:52:06 51° 91° (E) 10:58:57 435.465 / 435.565
AAUSAT CUBESAT 2 03 Jul 10:47:03 10:50:29 24° 290° (WNW) 10:53:51 437.432
UKube-1 03 Jul 10:49:44 10:53:23 27° 96° (E) 10:57:05 .
UNISAT 6 03 Jul 10:51:52 10:56:07 59° 259° (W) 11:00:21 437.425
Oscar 11 03 Jul 10:52:24 10:56:37 48° 286° (WNW) 11:00:47 145.826/435.025
ISS 03 Jul 10:54:32 10:56:20 14° 345° (NNW) 10:58:06 145.825
AISAT 03 Jul 10:58:45 11:02:03 21° 93° (E) 11:05:27 437.250
BUGSAT 1 03 Jul 11:04:24 11:08:28 48° 73° (ENE) 11:12:33 437.445
HUMSAT D 03 Jul 11:10:29 11:14:37 66° 101° (E) 11:18:48 437.325/437.525
DELFI C3 03 Jul 11:11:41 11:15:29 38° 287° (WNW) 11:19:16 145.870
CINEMA 3 03 Jul 11:12:39 11:15:09 15° 293° (WNW) 11:17:29 145.822/145.860
COMPASS 1 03 Jul 11:13:33 11:15:11 12° 295° (WNW) 11:16:37 437.405
QB50P2 03 Jul 11:14:20 11:18:36 79° 258° (WSW) 11:22:51 145.880/145.840
POPSAT HIP 1 03 Jul 11:15:25 11:19:40 80° 257° (WSW) 11:23:56 437.405
FUNcube-1 03 Jul 11:17:16 11:21:17 43° 286° (WNW) 11:25:20 145.935
CUBEBUG 1 03 Jul 11:21:07 11:24:14 19° 92° (E) 11:27:27 437.445
PHONESAT 2.4 03 Jul 11:24:31 11:27:58 86° 347° (NNW) 11:31:27 2401.200-2431.200
50 SAT 03 Jul 11:25:08 11:28:54 46° 99° (E) 11:32:42 437.505
ESTCUBE 1 03 Jul 11:25:30 11:29:19 27° 95° (E) 11:33:11 437.505/2401.250
HO-68 03 Jul 11:26:20 11:31:18 20° 302° (WNW) 11:35:59 435.675
UWE-3 03 Jul 11:26:30 11:30:04 27° 289° (WNW) 11:33:37 435.000/436.395/437.385
VERMONT LUNAR 03 Jul 11:26:49 11:29:59 89° 1° (N) 11:33:09 437.305
GONETS M04 03 Jul 11:36:33 11:42:34 19° 299° (WNW) 11:48:08
ANTELSAT 03 Jul 11:37:50 11:40:56 19° 267° (W) 11:43:54 437.575/2403.000
VELOX 1 03 Jul 11:47:42 11:52:07 72° 102° (ESE) 11:56:30 145.980
TIGRISAT 03 Jul 11:51:42 11:54:03 14° 270° (W) 11:56:11 435.000
QB50P1 03 Jul 11:55:21 11:59:03 27° 265° (W) 12:02:40 145.935-145.965
RS-15 03 Jul 11:57:31 12:09:19 89° 238° (WSW) 12:21:34 29.354- 29.394
DX 1 03 Jul 12:02:30 12:06:36 41° 288° (WNW) 12:10:39 434.975-435.025
NANOSAT C BR1 03 Jul 12:10:48 12:13:56 19° 267° (W) 12:16:56 145.865
DUCHIFAT 1 03 Jul 12:18:39 12:21:25 16° 268° (W) 12:24:01 145.980
ZACube-1 03 Jul 12:19:51 12:20:24 10° 295° (WNW) 12:20:40 437.345
POLYITAN 1 03 Jul 12:22:29 12:24:53 14° 269° (W) 12:27:05 437.675
UKube-1 03 Jul 12:25:51 12:29:27 25° 291° (WNW) 12:32:58 .
SPROUT 03 Jul 12:27:41 12:31:27 30° 96° (E) 12:35:14 437.525
ISS 03 Jul 12:32:55 12:33:49 11° 6° (N) 12:34:44 145.825
AISAT 03 Jul 12:34:45 12:38:44 33° 289° (WNW) 12:42:38 437.250
Cosmos 2499 03 Jul 12:39:51 12:45:40 26° 292° (WNW) 12:51:21 435.465 / 435.565
BUGSAT 1 03 Jul 12:42:01 12:44:15 14° 270° (W) 12:46:16 437.445
HUMSAT D 03 Jul 12:48:50 12:49:54 11° 295° (WNW) 12:50:44 437.325/437.525
CUBEBUG 1 03 Jul 12:56:44 13:00:43 35° 289° (WNW) 13:04:38 437.445
50 SAT 03 Jul 13:01:19 13:03:11 13° 293° (WNW) 13:04:51 437.505
ESTCUBE 1 03 Jul 13:02:16 13:06:09 28° 291° (WNW) 13:09:58 437.505/2401.250
PHONESAT 2.4 03 Jul 13:02:35 13:06:03 90° 5° (N) 13:09:33 2401.200-2431.200
VERMONT LUNAR 03 Jul 13:03:55 13:06:45 30° 205° (SSW) 13:09:35 437.305
Gurwin Techsat 1B 03 Jul 13:10:21 13:13:53 19° 64° (ENE) 13:17:36 435.225
Oscar 19 03 Jul 13:13:14 13:18:18 66° 74° (ENE) 13:23:25 437.125/150
TISAT 1 03 Jul 13:14:09 13:18:20 67° 101° (E) 13:22:28 437.305
YUBILEINY 03 Jul 13:15:40 13:21:43 21° 63° (ENE) 13:28:11 435.215
SWISSCUBE 03 Jul 13:20:42 13:23:02 14° 89° (E) 13:25:37 437.505
ITAMSAT 1 03 Jul 13:23:13 13:27:13 24° 66° (ENE) 13:31:22 435.822/435.867
ITUPSAT 1 03 Jul 13:25:22 13:27:43 14° 89° (E) 13:30:19 437.325
VELOX 1 03 Jul 13:26:47 13:28:08 11° 297° (WNW) 13:29:15 145.980
Cosmos 2491 03 Jul 13:40:20 13:43:10 12° 77° (ENE) 13:46:44 435.465 / 435.565
JAS-2 03 Jul 13:51:35 13:52:27 11° 58° (ENE) 13:53:38 435.910
SPROUT 03 Jul 14:04:02 14:07:24 22° 291° (WNW) 14:10:40 437.525
ISS 03 Jul 14:08:24 14:11:07 24° 25° (NNE) 14:13:50 145.825
RS-15 03 Jul 14:11:55 14:20:36 23° 257° (WSW) 14:28:45 29.354- 29.394
HORYU 2 03 Jul 14:37:50 14:40:21 15° 65° (ENE) 14:43:01 437.375
KKS-1 03 Jul 14:39:25 14:41:26 13° 90° (E) 14:43:42 437.445
PHONESAT 2.4 03 Jul 14:40:46 14:43:55 32° 205° (SSW) 14:47:04 2401.200-2431.200
BEESAT 03 Jul 14:41:06 14:45:57 88° 103° (ESE) 14:50:45 436.000
Gurwin Techsat 1B 03 Jul 14:48:16 14:53:28 56° 260° (W) 14:58:43 435.225
TISAT 1 03 Jul 14:52:35 14:53:36 11° 296° (WNW) 14:54:22 437.305
AO-7 03 Jul 14:54:27 15:02:02 42° 63° (ENE) 15:09:48 29.400- 29.500
Oscar 19 03 Jul 14:55:27 14:58:13 14° 271° (W) 15:00:43 437.125/150
SWISSCUBE 03 Jul 14:56:36 15:01:21 59° 286° (WNW) 15:06:04 437.505
ITUPSAT 1 03 Jul 15:01:19 15:06:05 60° 286° (WNW) 15:10:48 437.325
ITAMSAT 1 03 Jul 15:01:32 15:06:29 43° 262° (W) 15:11:27 435.822/435.867
BEESAT 3 03 Jul 15:03:37 15:04:40 11° 39° (NE) 15:05:53 437.485
YUBILEINY 03 Jul 15:10:59 15:19:46 81° 264° (W) 15:28:33 435.215
BEESAT 2 03 Jul 15:14:01 15:15:14 11° 39° (NE) 15:16:34 435.950
Cosmos 2491 03 Jul 15:29:55 15:38:41 73° 94° (E) 15:47:28 435.465 / 435.565
JAS-2 03 Jul 15:31:36 15:36:47 89° 77° (ENE) 15:42:10 435.910
STARS 03 Jul 15:32:56 15:36:49 31° 97° (E) 15:40:43 437.465
ISS 03 Jul 15:44:32 15:47:38 44° 223° (SW) 15:50:44 145.825
PCSat 03 Jul 15:49:56 15:55:12 57° 115° (ESE) 16:00:32 145.827
AIST 1 03 Jul 15:52:05 15:56:28 73° 95° (E) 16:00:53
HORYU 2 03 Jul 16:12:20 16:16:37 49° 261° (W) 16:20:55 437.375
KKS-1 03 Jul 16:14:09 16:18:29 53° 287° (WNW) 16:22:46 437.445
Cosmos 2504 03 Jul 16:21:14 16:28:05 35° 72° (ENE) 16:35:31 435.465 / 435.565
BEESAT 03 Jul 16:22:03 16:23:08 11° 299° (WNW) 16:23:57 436.000
MOZHAYETS 4 03 Jul 16:23:59 16:27:17 20° 92° (E) 16:30:44
AIST 2 03 Jul 16:24:09 16:26:33 15° 42° (NE) 16:29:03 435.215
BEESAT 3 03 Jul 16:39:15 16:43:19 87° 56° (NE) 16:47:19 437.485
AO-7 03 Jul 16:46:56 16:54:50 44° 261° (W) 17:02:42 29.400- 29.500
BEESAT 2 03 Jul 16:49:52 16:53:59 88° 58° (ENE) 16:58:00 435.950
STARS 03 Jul 17:09:39 17:13:08 23° 292° (WNW) 17:16:29 437.465
YUBILEINY 03 Jul 17:10:51 17:15:23 15° 282° (WNW) 17:19:18 435.215
SO-50 03 Jul 17:14:50 17:19:33 83° 121° (ESE) 17:24:26 436.795
O/OREOS (USA 219) 03 Jul 17:23:29 17:27:55 52° 65° (ENE) 17:32:22 437.305
CUTE-I 03 Jul 17:28:58 17:33:38 32° 68° (ENE) 17:38:25 437.470
Cosmos 2491 03 Jul 17:29:36 17:36:33 24° 295° (WNW) 17:43:10 435.465 / 435.565
PCSat 03 Jul 17:34:47 17:39:02 22° 313° (NW) 17:43:13 145.827
MOZHAYETS 4 03 Jul 18:00:21 18:04:42 39° 288° (WNW) 18:09:00
AIST 2 03 Jul 18:01:26 18:05:36 65° 241° (WSW) 18:09:41 435.215
Cubesat XI-IV 03 Jul 18:02:06 18:07:24 65° 74° (ENE) 18:12:45 437.490
Cosmos 2504 03 Jul 18:14:21 18:21:39 46° 270° (W) 18:29:23 435.465 / 435.565
CUSAT 1 03 Jul 18:23:30 18:23:46 10° 69° (ENE) 18:24:09 437.405
HO-68 03 Jul 18:24:05 18:24:59 10° 51° (NE) 18:26:22 435.675
CUBESAT XI-V 03 Jul 18:24:10 18:28:16 30° 95° (E) 18:32:22 437.345
STRAND 1 03 Jul 18:55:05 18:58:57 22° 92° (E) 19:02:55 437.568
GOMX 1 03 Jul 18:55:40 18:58:18 15° 66° (ENE) 19:01:05 467.674
SO-50 03 Jul 18:57:45 19:00:48 16° 321° (NW) 19:03:45 436.795
PRISM 03 Jul 19:04:17 19:07:31 22° 94° (E) 19:10:50 437.425
O/OREOS (USA 219) 03 Jul 19:04:28 19:06:56 14° 260° (W) 19:09:13 437.305
CUTE-I 03 Jul 19:08:56 19:13:42 32° 264° (W) 19:18:27 437.470
BRITE-PL 03 Jul 19:12:44 19:17:41 36° 72° (ENE) 19:22:26 437.365/2234.400
DANDE 03 Jul 19:18:42 19:21:28 44° 77° (ENE) 19:23:58 436.750
DOVE 4 03 Jul 19:43:02 19:46:58 26° 70° (ENE) 19:50:49 437.250
Cubesat XI-IV 03 Jul 19:44:52 19:48:04 15° 271° (W) 19:51:00 437.490
GONETS M04 03 Jul 19:47:01 19:55:08 43° 73° (ENE) 20:03:19
SEEDS 03 Jul 19:48:41 19:51:27 18° 68° (ENE) 19:54:22 437.485
CUBESAT XI-V 03 Jul 20:01:41 20:05:38 27° 291° (WNW) 20:09:27 437.345
AAUSAT CUBESAT 2 03 Jul 20:02:19 20:04:56 17° 68° (ENE) 20:07:43 437.432
HO-68 03 Jul 20:04:28 20:11:24 57° 69° (ENE) 20:18:23 435.675
CUSAT 1 03 Jul 20:04:53 20:06:21 14° 268° (W) 20:07:44 437.405
Oscar 11 03 Jul 20:13:44 20:14:39 11° 64° (ENE) 20:15:49 145.826/435.025
COMPASS 1 03 Jul 20:26:18 20:30:06 36° 72° (ENE) 20:33:57 437.405
GOMX 1 03 Jul 20:30:50 20:36:03 67° 259° (W) 20:40:56 467.674
CUTE 1.7 + AOD 2 03 Jul 20:32:59 20:37:09 71° 76° (ENE) 20:41:22 437.475
STRAND 1 03 Jul 20:33:30 20:38:22 43° 289° (WNW) 20:43:11 437.568
CINEMA 3 03 Jul 20:35:13 20:39:24 38° 73° (ENE) 20:43:28 145.822/145.860
CANX-2 03 Jul 20:36:10 20:40:22 86° 78° (ENE) 20:44:37 2200.000
Cosmos 2499 03 Jul 20:37:00 20:41:52 18° 64° (ENE) 20:47:22 435.465 / 435.565
FUNcube-1 03 Jul 20:39:09 20:40:18 11° 65° (ENE) 20:41:40 145.935
PRISM 03 Jul 20:39:19 20:43:00 29° 290° (WNW) 20:46:35 437.425
UWE-3 03 Jul 20:47:20 20:50:15 19° 68° (ENE) 20:53:16 435.000/436.395/437.385
BRITE-PL 03 Jul 20:51:27 20:56:13 29° 265° (W) 21:00:41 437.365/2234.400
AUBIESAT-1 03 Jul 21:14:20 21:18:19 38° 103° (ESE) 21:22:33 437.475
DOVE 4 03 Jul 21:20:11 21:24:38 33° 264° (W) 21:28:49 437.250
DX 1 03 Jul 21:23:01 21:25:22 15° 65° (ENE) 21:27:51 434.975-435.025
SEEDS 03 Jul 21:23:08 21:27:01 36° 263° (W) 21:30:53 437.485
CUBEBUG 2 03 Jul 21:29:19 21:33:37 72° 76° (ENE) 21:37:50 437.445
ZACube-1 03 Jul 21:35:33 21:39:38 49° 74° (ENE) 21:43:41 437.345
AAUSAT CUBESAT 2 03 Jul 21:36:25 21:40:17 38° 263° (W) 21:44:10 437.432
GONETS M04 03 Jul 21:44:01 21:51:58 40° 272° (W) 21:59:45
UKube-1 03 Jul 21:44:10 21:47:29 22° 68° (ENE) 21:50:53 .
Oscar 11 03 Jul 21:46:02 21:50:19 70° 259° (WSW) 21:54:37 145.826/435.025
M-CUBED/EXP-1 PRIME 03 Jul 21:47:36 21:51:48 78° 288° (WNW) 21:56:20 437.505
HO-68 03 Jul 21:53:39 21:59:34 26° 267° (W) 22:05:17 435.675
AISAT 03 Jul 21:56:13 21:59:17 19° 67° (ENE) 22:02:28 437.250
DELFI C3 03 Jul 21:57:36 22:01:35 72° 259° (WSW) 22:05:37 145.870
HUMSAT D 03 Jul 22:01:33 22:05:23 40° 73° (ENE) 22:09:15 437.325/437.525
COMPASS 1 03 Jul 22:03:10 22:05:57 17° 269° (W) 22:08:36 437.405
TIGRISAT 03 Jul 22:08:20 22:08:25 10° 88° (E) 22:08:49 435.000
50 SAT 03 Jul 22:09:02 22:12:04 23° 70° (ENE) 22:15:11 437.505
FUNcube-1 03 Jul 22:12:00 22:16:11 62° 259° (WSW) 22:20:19 145.935
CINEMA 3 03 Jul 22:13:31 22:16:45 18° 267° (W) 22:19:46 145.822/145.860
CUBEBUG 1 03 Jul 22:17:08 22:19:50 16° 66° (ENE) 22:22:41 437.445
UWE-3 03 Jul 22:22:39 22:26:36 35° 263° (W) 22:30:27 435.000/436.395/437.385
ESTCUBE 1 03 Jul 22:24:42 22:28:14 24° 68° (ENE) 22:31:54 437.505/2401.250
Cosmos 2499 03 Jul 22:28:13 22:36:05 87° 263° (W) 22:44:34 435.465 / 435.565
VELOX 1 03 Jul 22:44:16 22:48:39 58° 74° (ENE) 22:53:04 145.980
UNISAT 6 03 Jul 22:44:30 22:48:18 28° 96° (E) 22:52:12 437.425
AUBIESAT-1 03 Jul 22:49:41 22:52:51 20° 296° (WNW) 22:56:04 437.475
DX 1 03 Jul 22:56:56 23:01:12 52° 260° (W) 23:05:31 434.975-435.025
QB50P2 03 Jul 23:01:25 23:04:12 17° 92° (E) 23:07:06 145.880/145.840
POPSAT HIP 1 03 Jul 23:02:24 23:05:07 17° 92° (E) 23:07:59 437.405
ZACube-1 03 Jul 23:14:21 23:16:20 13° 270° (W) 23:18:06 437.345
UKube-1 03 Jul 23:19:33 23:23:27 32° 263° (W) 23:27:20 .
SPROUT 03 Jul 23:21:31 23:24:50 22° 69° (ENE) 23:28:14 437.525
ANTELSAT 03 Jul 23:28:34 23:32:59 89° 99° (E) 23:37:28 437.575/2403.000
AISAT 03 Jul 23:31:21 23:35:36 40° 262° (W) 23:39:49 437.250
HUMSAT D 03 Jul 23:38:55 23:41:22 15° 269° (W) 23:43:39 437.325/437.525
QB50P1 03 Jul 23:40:30 23:44:34 47° 99° (E) 23:48:39 145.935-145.965
TIGRISAT 03 Jul 23:41:20 23:45:41 68° 285° (WNW) 23:50:06 435.000
50 SAT 03 Jul 23:43:34 23:46:39 22° 266° (W) 23:49:41 437.505
CUBEBUG 1 03 Jul 23:51:34 23:55:52 46° 261° (W) 00:00:09 437.445
NANOSAT C BR1 03 Jul 23:54:57 23:59:09 71° 101° (ESE) 00:03:19 145.865
ESTCUBE 1 04 Jul 00:00:53 00:04:58 32° 264° (W) 00:09:03 437.505/2401.250
DUCHIFAT 1 04 Jul 00:02:09 00:06:22 84° 105° (ESE) 00:10:33 145.980
TISAT 1 04 Jul 00:05:21 00:09:23 44° 73° (ENE) 00:13:27 437.305
POLYITAN 1 04 Jul 00:06:15 00:10:28 83° 284° (WNW) 00:14:41 437.675
SO-50 04 Jul 00:08:52 00:10:23 11° 34° (NE) 00:12:06 436.795
BEESAT 04 Jul 00:13:41 00:14:15 10° 61° (ENE) 00:15:06 436.000
RS-15 04 Jul 00:17:33 00:19:56 11° 98° (E) 00:23:29 29.354- 29.394
UNISAT 6 04 Jul 00:21:23 00:25:00 25° 291° (WNW) 00:28:35 437.425
BUGSAT 1 04 Jul 00:22:34 00:26:39 86° 283° (WNW) 00:30:40 437.445
VELOX 1 04 Jul 00:23:38 00:25:39 12° 271° (W) 00:27:25 145.980
Cosmos 2499 04 Jul 00:23:57 00:28:26 15° 278° (W) 00:32:28 435.465 / 435.565
SWISSCUBE 04 Jul 00:26:47 00:29:33 16° 64° (ENE) 00:32:31 437.505
ITUPSAT 1 04 Jul 00:31:41 00:34:30 16° 64° (ENE) 00:37:30 437.325
QB50P2 04 Jul 00:36:22 00:40:16 36° 288° (WNW) 00:44:07 145.880/145.840
POPSAT HIP 1 04 Jul 00:37:17 00:41:10 37° 288° (WNW) 00:45:02 437.405
PCSat 04 Jul 00:38:37 00:43:42 39° 54° (NE) 00:48:47 145.827
SPROUT 04 Jul 00:56:55 01:00:46 31° 264° (W) 01:04:35 437.525
QB50P1 04 Jul 01:17:42 01:20:05 14° 294° (WNW) 01:22:18 145.935-145.965
Oscar 19 04 Jul 01:26:09 01:30:14 24° 93° (E) 01:34:25 437.125/150
NANOSAT C BR1 04 Jul 01:33:49 01:34:28 10° 296° (WNW) 01:34:51 145.865
KKS-1 04 Jul 01:37:45 01:39:29 12° 64° (ENE) 01:41:26 437.445
Cosmos 2491 04 Jul 01:41:45 01:49:28 35° 70° (ENE) 01:57:17 435.465 / 435.565
TISAT 1 04 Jul 01:42:57 01:45:26 15° 269° (W) 01:47:43 437.305
BEESAT 04 Jul 01:46:40 01:51:26 89° 244° (WSW) 01:56:16 436.000
SO-50 04 Jul 01:47:07 01:52:03 61° 55° (NE) 01:56:52 436.795
AIST 1 04 Jul 02:01:10 02:03:58 17° 70° (ENE) 02:06:52
SWISSCUBE 04 Jul 02:02:17 02:06:59 56° 260° (W) 02:11:43 437.505
ITUPSAT 1 04 Jul 02:07:16 02:11:58 56° 260° (W) 02:16:43 437.325
